Weather Roundup
Issued by NWS

Home | Current Version | Previous Version | Text Only | Print | Product List | Glossary On
Versions: 1 2 3 4 5 6 7 8 9 10 11 12 13 14 15 16 17 18 19 20 21 22 23 24 25 26 27 28 29 30 31 32 33 34 35 36 37 38 39 40 41 42 43 44 45 46 47 48 49 50
000
NZUS93 KARX 290510
HRRWXR

CURRENT HOURLY OBSERVATIONS ACROSS
MUCH OF THE UPPER MISSISSIPPI VALLEY
NATIONAL WEATHER SERVICE LA CROSSE WI
1200 AM CDT SUN MAY 29 2016


...SOUTHEAST MINNESOTA...


CITY           SKY/WX    TMP DP  RH WIND       PRES   REMARKS
ROCHESTER      CLOUDY    63  61  93 SW7       29.86R
ROCHESTER/MAYO CLOUDY    63  63 100 CALM      29.84R
WINONA         CLOUDY    61  61 100 CALM      29.83R
AUSTIN         PTCLDY    61  59  94 CALM      29.84R
ALBERT LEA     PTCLDY    63  61  94 W3        29.84S
DODGE CENTER   CLOUDY    63  61  94 CALM      29.84R
PRESTON        CLOUDY    62  58  88 S6        29.84S
OWATONNA       CLOUDY    63  61  94 W6        29.84R FOG
FARIBAULT      CLOUDY    61  61 100 W3        29.84R
$$

...ELSEWHERE IN MINNESOTA...


CITY           SKY/WX    TMP DP  RH WIND       PRES   REMARKS
MINNEAPOLIS    CLOUDY    63  60  90 W3        29.82R
INTNL FALLS    CLOUDY    57  56  96 N7        29.81S FOG
DULUTH         CLOUDY    56  54  93 SE3       29.81R FOG
RED WING       RAIN      64  63  94 CALM      29.81R
REDWOOD FALLS  CLOUDY    62  59  90 W7        29.86R
MANKATO        CLOUDY    63  57  82 W7        29.85S
WORTHINGTON    PTCLDY    59  57  93 W8        29.92R
FAIRMONT       MOCLDY    61  54  77 NW7       29.87R
$$

...SOUTHWEST WISCONSIN...


CITY           SKY/WX    TMP DP  RH WIND       PRES   REMARKS
LA CROSSE      MOCLDY    65  63  93 S3        29.83R
PRAIRIE DU CHI CLOUDY    67  59  74 CALM      29.86R
BOSCOBEL       PTCLDY    65  61  87 CALM      29.87R
LONE ROCK      CLOUDY    65  63  93 E3        29.90R
PLATTEVILLE    MOCLDY    65  62  91 SE7       29.92R
FORT MC COY    MOCLDY    64  63  94 S8        29.86R
CAMP DOUGLAS   MOCLDY    65  65 100 S8        29.85R
MAUSTON-NEW LI MOCLDY    65  63  93 S6        29.86S
VIROQUA        FAIR      64  63  96 S7        29.88R
WIS DELLS      CLOUDY    65  62  90 S8        29.89S
$$

...ELSEWHERE IN WISCONSIN...


CITY           SKY/WX    TMP DP  RH WIND       PRES   REMARKS
MILWAUKEE      LGT RAIN  66  63  90 S8        29.94S
MADISON        CLOUDY    68  63  84 S8        29.90S
GREEN BAY      CLOUDY    65  61  87 S9        29.86F
EAU CLAIRE     PTCLDY    60  59  96 S7        29.82R
BLACK RVR FLS  MOCLDY    62  62 100 CALM      29.84R
MEDFORD        MOCLDY    61  61 100 S3        29.83R
WAUSAU         MOCLDY    67  61  81 S12       29.82R
WIS RAPIDS     MOCLDY    66  61  84 S9        29.86R
MARSHFIELD     CLOUDY    65  60  84 S9        29.83R
RICE LAKE      CLOUDY    62  60  94 CALM      29.82S
$$

...NORTHEAST IOWA...


CITY           SKY/WX    TMP DP  RH WIND       PRES   REMARKS
WATERLOO       CLEAR     64  57  78 S12       29.84S
DUBUQUE        PTCLDY    63  59  87 S8        29.92R
DECORAH        PTCLDY    63  61  94 VRB5G12   29.85R
MASON CITY     PTCLDY    61  60  97 NW6       29.85R
CHARLES CITY   PTCLDY    63  61  94 SW7       29.84S
OELWEIN        CLOUDY    64  61  88 S12       29.87R
$$

...ELSEWHERE IN IOWA...


CITY           SKY/WX    TMP DP  RH WIND       PRES   REMARKS
DES MOINES     CLEAR     63  55  75 SW8       29.92R
IOWA CITY      CLOUDY    67  60  78 SW9       29.92R
FORT DODGE     CLOUDY    63  57  82 W6        29.90R
MARSHALLTOWN   CLEAR     64  58  80 SW15      29.87R
CEDAR RAPIDS   CLEAR     66  61  84 SW9       29.89R
$$

...NORTHERN ILLINOIS...


CITY           SKY/WX    TMP DP  RH WIND       PRES   REMARKS
CHICAGO-OHARE  CLOUDY    66  63  90 S6        29.96R
CHICAGO-MIDWAY MOCLDY    72  59  63 NW3       29.97R
MOLINE         CLOUDY    70  59  68 S6        29.94R
ROCKFORD       CLOUDY    69  65  86 S6        29.96R
PEORIA         CLOUDY    65  62  90 S5        29.98R
$$

NOTE: "FAIR" INDICATES FEW OR NO CLOUDS BELOW 12,000 FEET WITH NO
SIGNIFICANT WEATHER AND/OR OBSTRUCTIONS TO VISIBILITY. WIND
SPEEDS ARE IN MILES-PER-HOUR.




USA.gov is the U.S. government's official web portal to all federal, state and local government web resources and services.